Location: Unspecified
(0.0000°N, 0.0000°E)
Time: 13:10:21
(UTC+00:00)

Vanguard 2 Rocket - All Passes

Search period start: 24 April 2017 00:00
Search period end: 04 May 2017 00:00
Orbit: 554 x 3328 km, 32.9° (Epoch: 22 April)

Date Brightness Start Highest point End Pass type
(mag) Time Alt. Az. Time Alt. Az. Time Alt. Az.
24 Apr - 00:55:14 10° NW 00:59:07 48° NE 01:04:19 10° ESE night (unlit)
24 Apr - 03:08:28 10° WSW 03:12:50 24° SSW 03:19:14 10° SSE visible
24 Apr - 05:27:42 10° SSW 05:30:16 11° S 05:33:10 10° S visible
24 Apr - 07:44:40 10° SSW 07:51:40 14° SSE 07:59:57 10° SE daylight
24 Apr - 09:58:25 10° SSW 10:13:52 32° SSE 10:30:33 10° E daylight
24 Apr - 12:13:52 10° SW 12:34:15 70° SE 12:51:04 10° ENE daylight
24 Apr - 14:33:26 10° WSW 14:52:26 53° NW 15:05:18 10° NE daylight
24 Apr - 17:01:30 10° WNW 17:09:14 16° NW 17:15:15 10° N daylight
24 Apr - 23:57:10 10° NNW 00:00:11 21° NE 00:03:31 10° E night (unlit)
25 Apr - 02:08:57 10° W 02:13:04 36° SSW 02:19:05 10° SE visible
25 Apr - 04:26:37 10° SSW 04:29:04 11° S 04:31:54 10° S visible
25 Apr - 06:46:22 10° S 06:49:00 11° S 06:51:52 10° SSE daylight
25 Apr - 08:58:34 10° SSW 09:11:03 24° SSE 09:25:44 10° ESE daylight
25 Apr - 11:12:49 10° SW 11:31:47 55° SE 11:49:47 10° ENE daylight
25 Apr - 13:30:23 10° WSW 13:50:52 71° NW 14:05:55 10° NE daylight
25 Apr - 15:54:45 10° W 16:08:12 26° NW 16:17:46 10° NNE daylight
26 Apr - 01:09:48 10° WNW 01:13:46 66° SSW 01:19:08 10° SE night (unlit)
26 Apr - 03:25:36 10° SW 03:28:27 13° SSW 03:31:55 10° S visible
26 Apr - 07:59:20 10° SSW 08:08:19 17° SSE 08:19:13 10° ESE daylight
26 Apr - 10:12:24 10° SW 10:29:14 43° SSE 10:47:24 10° E daylight
26 Apr - 12:28:16 10° SW 12:48:51 90° NW 13:05:53 10° NE daylight
26 Apr - 14:49:36 10° W 15:06:56 39° NW 15:19:16 10° NNE daylight
26 Apr - 17:23:33 10° NW 17:24:50 10° NNW 17:26:03 10° NNW daylight
27 Apr - 00:10:58 10° NW 00:14:48 54° NE 00:19:12 10° ESE night (unlit)
27 Apr - 02:25:08 10° WSW 02:28:20 17° SSW 02:32:26 10° SSE visible
27 Apr - 07:01:17 10° S 07:05:48 12° SSE 07:10:57 10° SE daylight
27 Apr - 09:12:34 10° SSW 09:26:44 32° SSE 09:43:36 10° E daylight
27 Apr - 11:26:59 10° SW 11:46:31 73° SE 12:05:05 10° ENE daylight
27 Apr - 13:45:46 10° WSW 14:05:19 53° NW 14:20:06 10° NE daylight
27 Apr - 16:13:18 10° WNW 16:23:25 18° NNW 16:31:12 10° N daylight
27 Apr - 23:12:27 10° NNW 23:15:48 24° NNE 23:19:04 10° E night (unlit)
28 Apr - 01:25:12 10° W 01:28:41 27° SSW 01:33:08 10° SSE night (unlit)
28 Apr - 08:13:21 10° SSW 08:24:23 23° SSE 08:38:13 10° ESE daylight
28 Apr - 10:26:25 10° SW 10:44:08 57° SE 11:03:21 10° ENE daylight
28 Apr - 12:43:06 10° WSW 13:03:20 70° NW 13:20:19 10° NE daylight
28 Apr - 15:06:49 10° W 15:21:49 28° NW 15:33:02 10° NNE daylight
28 Apr - 22:14:29 10° N 22:16:26 12° NNE 22:18:13 10° NE night (unlit)
29 Apr - 00:25:40 10° WNW 00:29:29 52° SSW 00:33:52 10° SE night (unlit)
29 Apr - 07:14:59 10° S 07:22:11 16° SSE 07:31:02 10° ESE daylight
29 Apr - 09:26:29 10° SSW 09:41:50 43° SE 10:00:28 10° E daylight
29 Apr - 11:41:26 10° SW 12:01:04 88° NW 12:19:51 10° NE daylight
29 Apr - 14:01:57 10° W 14:20:00 39° NW 14:34:03 10° NNE daylight
29 Apr - 16:33:19 10° NW 16:39:14 13° NNW 16:44:16 10° N daylight
29 Apr - 23:26:24 10° NW 23:30:32 65° NE 23:34:31 10° ESE night (unlit)
30 Apr - 01:42:12 10° SW 01:43:52 12° SSW 01:45:42 10° S night (unlit)
30 Apr - 08:27:10 10° SSW 08:39:47 31° SE 08:56:11 10° E daylight
30 Apr - 10:40:37 10° SW 10:58:42 75° SE 11:18:36 10° ENE daylight
30 Apr - 12:58:32 10° WSW 13:17:54 53° NW 13:34:27 10° NE daylight
30 Apr - 15:25:13 10° WNW 15:37:16 20° NNW 15:46:44 10° NNE daylight
30 Apr - 22:27:18 10° NNW 22:31:28 29° NNE 22:34:57 10° E night (unlit)
01 May - 00:41:20 10° W 00:44:19 20° SSW 00:47:38 10° SSE night (unlit)
01 May - 07:28:33 10° SSW 07:37:58 21° SSE 07:50:19 10° ESE daylight
01 May - 09:40:31 10° SW 09:56:32 58° SE 10:16:23 10° ENE daylight
01 May - 11:56:19 10° WSW 12:15:35 68° NW 12:34:13 10° NE daylight
01 May - 14:19:08 10° W 14:35:06 29° NNW 14:47:55 10° NNE daylight
01 May - 21:28:17 10° NNW 21:32:00 18° NNE 21:34:59 10° ENE visible
01 May - 23:41:14 10° WNW 23:45:13 43° SW 23:49:03 10° SE night (unlit)
02 May - 06:31:13 10° S 06:36:20 13° SSE 06:42:29 10° SE daylight
02 May - 08:41:02 10° SSW 08:54:39 43° SE 09:13:02 10° ENE daylight
02 May - 10:55:07 10° SW 11:13:12 85° NW 11:33:17 10° NE daylight
02 May - 13:14:43 10° W 13:32:46 39° NNW 13:48:25 10° NNE daylight
02 May - 15:44:39 10° NW 15:53:21 15° NNW 16:00:33 10° N daylight
02 May - 20:29:16 10° N 20:32:03 13° NNE 20:34:25 10° NE visible
02 May - 22:41:27 10° NW 22:46:17 79° NE 22:50:11 10° ESE night (unlit)
03 May - 07:42:11 10° SSW 07:53:08 30° SE 08:08:23 10° E daylight
03 May - 09:54:44 10° SW 10:11:00 76° SE 10:31:34 10° ENE daylight
03 May - 12:11:47 10° WSW 12:30:18 52° NW 12:48:19 10° NE daylight
03 May - 14:37:24 10° WNW 14:50:49 22° NNW 15:01:51 10° NNE daylight
03 May - 19:30:20 10° N 19:31:39 10° NNE 19:32:51 10° NNE visible
03 May - 21:41:42 10° NW 21:47:08 39° NNE 21:51:03 10° E visible
